Terminal Aerodrome Forecast
Issued by NWS

Home | Current Version | Previous Version | Text Only | Print | Product List | Glossary On
Versions: 1 2 3 4 5 6 7 8 9 10 11 12 13 14 15 16 17 18 19 20 21
000
FTUS43 KDDC 231700
TAFGCK
TAF
KGCK 231728Z 2318/2418 19026G33KT P6SM SCT070
     FM240200 34025G35KT P6SM VCTS BKN040CB
     FM240700 36018G28KT P6SM OVC040=

USA.gov is the U.S. government's official web portal to all federal, state and local government web resources and services.